| time (UTC) | temp F | wind direction | speed MPH | gust MPH | rain 1hr in | rain 24hr in | rain mn in | humidity % | barometer mb |
| 20260508044304 | 56 | 145 | 2.0 | 6.0 | 0.00 | 0.00 | 0.00 | 55 | 1014.8 |
| 20260508043804 | 55 | 145 | 0.0 | 3.0 | 0.00 | 0.00 | 0.00 | 55 | 1014.8 |
| 20260508043304 | 55 | 150 | 0.0 | 0.0 | 0.00 | 0.00 | 0.00 | 55 | 1014.8 |
| 20260508042804 | 55 | 167 | 0.0 | 0.0 | 0.00 | 0.00 | 0.00 | 55 | 1014.8 |
| 20260508042306 | 56 | 167 | 0.0 | 0.0 | 0.00 | 0.00 | 0.00 | 55 | 1014.8 |
| 20260508041804 | 56 | 167 | 0.0 | 0.0 | 0.00 | 0.00 | 0.00 | 55 | 1014.8 |
| 20260508041304 | 56 | 145 | 0.0 | 0.0 | 0.00 | 0.00 | 0.00 | 55 | 1014.8 |
| 20260508040804 | 56 | 145 | 0.0 | 0.0 | 0.00 | 0.00 | 0.00 | 54 | 1014.8 |
| 20260508040303 | 56 | 145 | 0.0 | 0.0 | 0.00 | 0.00 | 0.00 | 54 | 1014.8 |
| 20260508034804 | 56 | 145 | 0.0 | 0.0 | 0.00 | 0.00 | 0.00 | 53 | 1014.9 |
| 20260508034303 | 56 | 145 | 0.0 | 0.0 | 0.00 | 0.00 | 0.00 | 53 | 1014.9 |
| 20260508033803 | 56 | 145 | 0.0 | 0.0 | 0.00 | 0.00 | 0.00 | 53 | 1014.9 |
| 20260508033303 | 56 | 145 | 0.0 | 0.0 | 0.00 | 0.00 | 0.00 | 53 | 1014.9 |
| 20260508032803 | 57 | 145 | 0.0 | 0.0 | 0.00 | 0.00 | 0.00 | 52 | 1014.8 |
| 20260508032306 | 57 | 145 | 0.0 | 2.0 | 0.00 | 0.00 | 0.00 | 52 | 1014.8 |
| 20260508031804 | 57 | 145 | 0.0 | 2.0 | 0.00 | 0.00 | 0.00 | 52 | 1014.8 |
| 20260508031303 | 57 | 145 | 0.0 | 0.0 | 0.00 | 0.00 | 0.00 | 52 | 1014.8 |
| 20260508030803 | 58 | 145 | 0.0 | 2.0 | 0.00 | 0.00 | 0.00 | 51 | 1014.7 |
| 20260508030304 | 58 | 145 | 0.0 | 2.0 | 0.00 | 0.00 | 0.00 | 50 | 1014.7 |
| 20260508025804 | 58 | 145 | 0.0 | 0.0 | 0.00 | 0.00 | 0.00 | 50 | 1014.7 |
| 20260508025306 | 58 | 145 | 0.0 | 0.0 | 0.00 | 0.00 | 0.00 | 49 | 1014.7 |
| 20260508024804 | 58 | 145 | 0.0 | 0.0 | 0.00 | 0.00 | 0.00 | 49 | 1014.8 |
| 20260508024303 | 58 | 145 | 0.0 | 0.0 | 0.00 | 0.00 | 0.00 | 49 | 1014.8 |
| 20260508023804 | 59 | 145 | 0.0 | 0.0 | 0.00 | 0.00 | 0.00 | 48 | 1014.8 |
| 20260508022804 | 59 | 145 | 0.0 | 0.0 | 0.00 | 0.00 | 0.00 | 46 | 1014.7 |
| 20260508022306 | 59 | 145 | 0.0 | 0.0 | 0.00 | 0.00 | 0.00 | 46 | 1014.7 |
| 20260508021804 | 60 | 145 | 0.0 | 0.0 | 0.00 | 0.00 | 0.00 | 45 | 1014.7 |
| 20260508021304 | 60 | 145 | 0.0 | 0.0 | 0.00 | 0.00 | 0.00 | 44 | 1014.7 |
| 20260508020304 | 60 | 145 | 0.0 | 0.0 | 0.00 | 0.00 | 0.00 | 44 | 1014.4 |
| 20260508015803 | 61 | 145 | 0.0 | 0.0 | 0.00 | 0.00 | 0.00 | 43 | 1014.4 |
| 20260508015305 | 61 | 155 | 0.0 | 0.0 | 0.00 | 0.00 | 0.00 | 42 | 1014.4 |
| 20260508014804 | 61 | 190 | 0.0 | 0.0 | 0.00 | 0.00 | 0.00 | 41 | 1014.2 |
| 20260508014303 | 62 | 190 | 0.0 | 0.0 | 0.00 | 0.00 | 0.00 | 41 | 1014.2 |
| 20260508013804 | 62 | 190 | 0.0 | 0.0 | 0.00 | 0.00 | 0.00 | 40 | 1014.2 |
| 20260508013304 | 62 | 190 | 0.0 | 0.0 | 0.00 | 0.00 | 0.00 | 39 | 1014.2 |
| 20260508012803 | 62 | 190 | 0.0 | 0.0 | 0.00 | 0.00 | 0.00 | 39 | 1014.0 |
| 20260508012307 | 63 | 190 | 0.0 | 0.0 | 0.00 | 0.00 | 0.00 | 38 | 1014.0 |
| 20260508011304 | 64 | 190 | 0.0 | 0.0 | 0.00 | 0.00 | 0.00 | 37 | 1014.0 |
| 20260508010803 | 64 | 190 | 0.0 | 0.0 | 0.00 | 0.00 | 0.00 | 37 | 1013.7 |
| 20260508010304 | 64 | 190 | 0.0 | 0.0 | 0.00 | 0.00 | 0.00 | 37 | 1013.7 |
| 20260508005803 | 65 | 190 | 0.0 | 0.0 | 0.00 | 0.00 | 0.00 | 36 | 1013.7 |
| 20260508005305 | 66 | 145 | 0.0 | 0.0 | 0.00 | 0.00 | 0.00 | 36 | 1013.7 |
| 20260508004803 | 67 | 145 | 1.0 | 3.0 | 0.00 | 0.00 | 0.00 | 35 | 1013.6 |
| 20260508004304 | 67 | 250 | 2.0 | 3.0 | 0.00 | 0.00 | 0.00 | 35 | 1013.6 |
| 20260508003305 | 67 | 285 | 2.0 | 3.0 | 0.00 | 0.00 | 0.00 | 34 | 1013.6 |
| 20260508002804 | 67 | 145 | 2.0 | 5.0 | 0.00 | 0.00 | 0.00 | 35 | 1013.8 |
| 20260508002306 | 66 | 158 | 2.0 | 8.0 | 0.00 | 0.00 | 0.00 | 34 | 1013.8 |
| 20260508001803 | 66 | 123 | 2.0 | 8.0 | 0.00 | 0.00 | 0.00 | 34 | 1013.8 |
| 20260508000804 | 67 | 167 | 6.0 | 9.0 | 0.00 | 0.00 | 0.00 | 33 | 1013.8 |
| 20260508000305 | 67 | 145 | 5.0 | 10.0 | 0.00 | 0.00 | 0.00 | 32 | 1013.8 |
| 20260507235306 | 67 | 150 | 4.0 | 6.0 | 0.00 | 0.00 | 0.00 | 33 | 1013.8 |
| 20260507234804 | 67 | 145 | 6.0 | 6.0 | 0.00 | 0.00 | 0.00 | 32 | 1013.3 |
| 20260507234304 | 67 | 162 | 6.0 | 12.0 | 0.00 | 0.00 | 0.00 | 32 | 1013.3 |
| 20260507233804 | 68 | 167 | 6.0 | 6.0 | 0.00 | 0.00 | 0.00 | 31 | 1013.3 |
| 20260507233304 | 68 | 157 | 7.0 | 12.0 | 0.00 | 0.00 | 0.00 | 31 | 1013.3 |
| 20260507232803 | 69 | 145 | 6.0 | 9.0 | 0.00 | 0.00 | 0.00 | 30 | 1013.2 |
| 20260507232306 | 69 | 126 | 6.0 | 12.0 | 0.00 | 0.00 | 0.00 | 30 | 1013.2 |
| 20260507231303 | 71 | 162 | 5.0 | 13.0 | 0.00 | 0.00 | 0.00 | 29 | 1013.2 |
| 20260507230804 | 72 | 145 | 6.0 | 8.0 | 0.00 | 0.00 | 0.00 | 28 | 1013.8 |
| 20260507230303 | 72 | 180 | 6.0 | 13.0 | 0.00 | 0.00 | 0.00 | 28 | 1013.8 |
| 20260507225306 | 73 | 167 | 6.0 | 10.0 | 0.00 | 0.00 | 0.00 | 27 | 1013.8 |
| 20260507223801 | 73 | 123 | 5.0 | 9.0 | 0.00 | 0.00 | 0.00 | 27 | 1013.8 |
| 20260507222802 | 72 | 167 | 7.0 | 9.0 | 0.00 | 0.00 | 0.00 | 29 | 1013.8 |
| 20260507222305 | 73 | 162 | 8.0 | 10.0 | 0.00 | 0.00 | 0.00 | 28 | 1013.8 |
| 20260507221801 | 73 | 145 | 8.0 | 15.0 | 0.00 | 0.00 | 0.00 | 29 | 1013.8 |
| 20260507221302 | 73 | 292 | 6.0 | 15.0 | 0.00 | 0.00 | 0.00 | 27 | 1013.8 |
| 20260507220802 | 73 | 167 | 5.0 | 13.0 | 0.00 | 0.00 | 0.00 | 27 | 1014.1 |
| 20260507220302 | 73 | 210 | 5.0 | 8.0 | 0.00 | 0.00 | 0.00 | 28 | 1014.1 |
| 20260507215801 | 73 | 325 | 6.0 | 22.0 | 0.00 | 0.00 | 0.00 | 29 | 1014.1 |
| 20260507214802 | 73 | 123 | 8.0 | 15.0 | 0.00 | 0.00 | 0.00 | 29 | 1014.0 |
| 20260507214301 | 72 | 207 | 7.0 | 14.0 | 0.00 | 0.00 | 0.00 | 29 | 1014.0 |
| 20260507213802 | 71 | 190 | 6.0 | 10.0 | 0.00 | 0.00 | 0.00 | 30 | 1014.0 |
| 20260507213302 | 71 | 145 | 7.0 | 17.0 | 0.00 | 0.00 | 0.00 | 30 | 1012.8 |
| 20260507212802 | 73 | 145 | 7.0 | 9.0 | 0.00 | 0.00 | 0.00 | 28 | 1013.3 |
| 20260507212306 | 73 | 112 | 6.0 | 17.0 | 0.00 | 0.00 | 0.00 | 29 | 1013.3 |
| 20260507211802 | 73 | 280 | 5.0 | 8.0 | 0.00 | 0.00 | 0.00 | 30 | 1013.3 |
| 20260507211302 | 71 | 145 | 6.0 | 9.0 | 0.00 | 0.00 | 0.00 | 30 | 1013.3 |
| 20260507210802 | 71 | 167 | 6.0 | 8.0 | 0.00 | 0.00 | 0.00 | 31 | 1013.6 |
| 20260507210302 | 72 | 145 | 7.0 | 15.0 | 0.00 | 0.00 | 0.00 | 31 | 1013.6 |
| 20260507205802 | 72 | 280 | 6.0 | 15.0 | 0.00 | 0.00 | 0.00 | 32 | 1013.6 |
| 20260507205302 | 70 | 179 | 5.0 | 13.0 | 0.00 | 0.00 | 0.00 | 32 | 1013.6 |
| 20260507204802 | 68 | 167 | 6.0 | 8.0 | 0.00 | 0.00 | 0.00 | 32 | 1013.8 |
| 20260507204301 | 69 | 4 | 6.0 | 13.0 | 0.00 | 0.00 | 0.00 | 32 | 1013.8 |
| 20260507203802 | 70 | 167 | 6.0 | 14.0 | 0.00 | 0.00 | 0.00 | 31 | 1013.8 |
| 20260507202801 | 69 | 213 | 7.0 | 17.0 | 0.00 | 0.00 | 0.00 | 32 | 1014.3 |
| 20260507202306 | 69 | 128 | 6.0 | 17.0 | 0.00 | 0.00 | 0.00 | 32 | 1014.3 |
| 20260507201802 | 70 | 123 | 7.0 | 8.0 | 0.00 | 0.00 | 0.00 | 31 | 1014.3 |
| 20260507201302 | 70 | 145 | 7.0 | 9.0 | 0.00 | 0.00 | 0.00 | 31 | 1014.3 |
| 20260507200802 | 71 | 145 | 6.0 | 20.0 | 0.00 | 0.00 | 0.00 | 31 | 1014.1 |
| 20260507195802 | 72 | 145 | 6.0 | 13.0 | 0.00 | 0.00 | 0.00 | 29 | 1014.1 |
| 20260507195305 | 72 | 145 | 5.0 | 12.0 | 0.00 | 0.00 | 0.00 | 29 | 1014.1 |
| 20260507194801 | 71 | 145 | 6.0 | 12.0 | 0.00 | 0.00 | 0.00 | 30 | 1014.3 |
| 20260507194302 | 71 | 145 | 6.0 | 15.0 | 0.00 | 0.00 | 0.00 | 31 | 1014.3 |
| 20260507193802 | 71 | 257 | 7.0 | 9.0 | 0.00 | 0.00 | 0.00 | 30 | 1014.3 |
| 20260507192801 | 71 | 145 | 6.0 | 18.0 | 0.00 | 0.00 | 0.00 | 31 | 1014.7 |
| 20260507192305 | 72 | 145 | 5.0 | 7.0 | 0.00 | 0.00 | 0.00 | 31 | 1014.7 |
| 20260507191802 | 69 | 10 | 6.0 | 12.0 | 0.00 | 0.00 | 0.00 | 31 | 1014.7 |
| 20260507191302 | 70 | 198 | 6.0 | 12.0 | 0.00 | 0.00 | 0.00 | 33 | 1014.7 |
| 20260507190802 | 70 | 145 | 7.0 | 8.0 | 0.00 | 0.00 | 0.00 | 32 | 1014.8 |
| 20260507190302 | 70 | 173 | 7.0 | 9.0 | 0.00 | 0.00 | 0.00 | 34 | 1014.8 |
| 20260507185802 | 69 | 145 | 6.0 | 12.0 | 0.00 | 0.00 | 0.00 | 33 | 1014.8 |
| 20260507185305 | 69 | 131 | 6.0 | 12.0 | 0.00 | 0.00 | 0.00 | 32 | 1014.8 |
| 20260507184802 | 69 | 325 | 5.0 | 12.0 | 0.00 | 0.00 | 0.00 | 33 | 1014.7 |
| 20260507184301 | 69 | 129 | 5.0 | 9.0 | 0.00 | 0.00 | 0.00 | 36 | 1014.7 |
| 20260507183802 | 69 | 145 | 6.0 | 12.0 | 0.00 | 0.00 | 0.00 | 37 | 1014.7 |
| 20260507183302 | 69 | 150 | 6.0 | 12.0 | 0.00 | 0.00 | 0.00 | 35 | 1014.7 |
| 20260507182802 | 68 | 280 | 6.0 | 10.0 | 0.00 | 0.00 | 0.00 | 36 | 1015.4 |
| 20260507182306 | 68 | 129 | 7.0 | 14.0 | 0.00 | 0.00 | 0.00 | 36 | 1015.4 |
| 20260507181802 | 67 | 167 | 7.0 | 14.0 | 0.00 | 0.00 | 0.00 | 35 | 1015.4 |
| 20260507181302 | 67 | 139 | 6.0 | 12.0 | 0.00 | 0.00 | 0.00 | 37 | 1015.4 |
| 20260507180801 | 66 | 33 | 6.0 | 8.0 | 0.00 | 0.00 | 0.00 | 37 | 1015.9 |
| 20260507180302 | 65 | 111 | 7.0 | 12.0 | 0.00 | 0.00 | 0.00 | 36 | 1015.9 |
| 20260507175802 | 65 | 145 | 5.0 | 14.0 | 0.00 | 0.00 | 0.00 | 37 | 1015.9 |
| 20260507175306 | 64 | 135 | 3.0 | 14.0 | 0.00 | 0.00 | 0.00 | 37 | 1015.9 |
| 20260507174302 | 64 | 340 | 7.0 | 12.0 | 0.00 | 0.00 | 0.00 | 36 | 1015.6 |
| 20260507173802 | 63 | 190 | 8.0 | 14.0 | 0.00 | 0.00 | 0.00 | 37 | 1015.6 |
| 20260507173301 | 63 | 161 | 8.0 | 21.0 | 0.00 | 0.00 | 0.00 | 37 | 1015.6 |
| 20260507172802 | 62 | 123 | 8.0 | 13.0 | 0.00 | 0.00 | 0.00 | 37 | 1016.2 |
| 20260507172306 | 63 | 145 | 6.0 | 33.0 | 0.00 | 0.00 | 0.00 | 37 | 1016.2 |
| 20260507171801 | 62 | 303 | 5.0 | 12.0 | 0.00 | 0.00 | 0.00 | 39 | 1016.2 |
| 20260507171302 | 62 | 145 | 6.0 | 9.0 | 0.00 | 0.00 | 0.00 | 39 | 1016.2 |
| 20260507170802 | 62 | 303 | 5.0 | 9.0 | 0.00 | 0.00 | 0.00 | 40 | 1016.5 |
| 20260507165801 | 61 | 167 | 5.0 | 9.0 | 0.00 | 0.00 | 0.00 | 40 | 1016.5 |
| 20260507165301 | 62 | 207 | 5.0 | 21.0 | 0.00 | 0.00 | 0.00 | 39 | 1016.5 |
| 20260507164802 | 62 | 123 | 5.0 | 21.0 | 0.00 | 0.00 | 0.00 | 40 | 1016.8 |
| 20260507163802 | 61 | 145 | 6.0 | 12.0 | 0.00 | 0.00 | 0.00 | 40 | 1016.8 |
| 20260507162801 | 61 | 303 | 3.0 | 8.0 | 0.00 | 0.00 | 0.00 | 41 | 1016.8 |
| 20260507162306 | 61 | 231 | 3.0 | 5.0 | 0.00 | 0.00 | 0.00 | 42 | 1016.8 |
| 20260507161801 | 60 | 257 | 5.0 | 8.0 | 0.00 | 0.00 | 0.00 | 40 | 1016.8 |
| 20260507161302 | 60 | 306 | 5.0 | 7.0 | 0.00 | 0.00 | 0.00 | 41 | 1016.8 |
| 20260507160302 | 60 | 145 | 5.0 | 10.0 | 0.00 | 0.00 | 0.00 | 42 | 1017.4 |
| 20260507155802 | 59 | 145 | 5.0 | 10.0 | 0.00 | 0.00 | 0.00 | 43 | 1017.4 |
| 20260507155305 | 59 | 284 | 5.0 | 13.0 | 0.00 | 0.00 | 0.00 | 43 | 1017.4 |
| 20260507154802 | 59 | 145 | 5.0 | 13.0 | 0.00 | 0.00 | 0.00 | 45 | 1017.3 |
| 20260507154302 | 59 | 167 | 5.0 | 12.0 | 0.00 | 0.00 | 0.00 | 46 | 1017.3 |
| 20260507153802 | 58 | 145 | 5.0 | 10.0 | 0.00 | 0.00 | 0.00 | 49 | 1017.3 |
| 20260507153303 | 58 | 128 | 3.0 | 9.0 | 0.00 | 0.00 | 0.00 | 51 | 1017.3 |
| 20260507152802 | 58 | 145 | 5.0 | 6.0 | 0.00 | 0.00 | 0.00 | 51 | 1017.7 |
| 20260507152305 | 58 | 145 | 5.0 | 12.0 | 0.00 | 0.00 | 0.00 | 51 | 1017.7 |
| 20260507151802 | 58 | 145 | 3.0 | 9.0 | 0.00 | 0.00 | 0.00 | 49 | 1017.7 |
| 20260507150802 | 57 | 167 | 3.0 | 8.0 | 0.00 | 0.00 | 0.00 | 53 | 1018.0 |
| 20260507150302 | 57 | 209 | 3.0 | 15.0 | 0.00 | 0.00 | 0.00 | 54 | 1018.0 |
| 20260507145802 | 57 | 145 | 3.0 | 15.0 | 0.00 | 0.00 | 0.00 | 54 | 1018.0 |
| 20260507145306 | 56 | 151 | 5.0 | 8.0 | 0.00 | 0.00 | 0.00 | 54 | 1018.0 |
| 20260507144802 | 56 | 325 | 4.0 | 8.0 | 0.00 | 0.00 | 0.00 | 55 | 1018.0 |
| 20260507144302 | 56 | 161 | 3.0 | 8.0 | 0.00 | 0.00 | 0.00 | 56 | 1018.0 |
| 20260507143802 | 56 | 145 | 3.0 | 8.0 | 0.00 | 0.00 | 0.00 | 55 | 1018.0 |
| 20260507143302 | 56 | 167 | 3.0 | 7.0 | 0.00 | 0.00 | 0.00 | 56 | 1018.0 |
| 20260507142802 | 55 | 190 | 3.0 | 5.0 | 0.00 | 0.00 | 0.00 | 56 | 1017.7 |
| 20260507142306 | 55 | 282 | 2.0 | 5.0 | 0.00 | 0.00 | 0.00 | 58 | 1017.7 |
| 20260507141302 | 55 | 145 | 2.0 | 5.0 | 0.00 | 0.00 | 0.00 | 61 | 1017.7 |
| 20260507140802 | 54 | 190 | 1.0 | 5.0 | 0.00 | 0.00 | 0.00 | 60 | 1017.6 |
| 20260507140302 | 54 | 161 | 1.0 | 5.0 | 0.00 | 0.00 | 0.00 | 62 | 1017.6 |
| 20260507135802 | 54 | 213 | 1.0 | 5.0 | 0.00 | 0.00 | 0.00 | 64 | 1017.6 |
| 20260507135306 | 53 | 166 | 1.0 | 5.0 | 0.00 | 0.00 | 0.00 | 64 | 1017.6 |
| 20260507134302 | 52 | 257 | 1.0 | 5.0 | 0.00 | 0.00 | 0.00 | 65 | 1017.9 |
| 20260507133803 | 52 | 167 | 1.0 | 0.0 | 0.00 | 0.00 | 0.00 | 67 | 1017.9 |
| 20260507133303 | 52 | 184 | 1.0 | 0.0 | 0.00 | 0.00 | 0.00 | 68 | 1017.9 |
| 20260507132802 | 51 | 145 | 0.0 | 2.0 | 0.00 | 0.00 | 0.00 | 71 | 1018.1 |
| 20260507132306 | 51 | 156 | 1.0 | 5.0 | 0.00 | 0.00 | 0.00 | 72 | 1018.1 |
| 20260507131302 | 50 | 201 | 1.0 | 3.0 | 0.00 | 0.00 | 0.00 | 78 | 1018.1 |
| 20260507130302 | 48 | 145 | 0.0 | 3.0 | 0.00 | 0.00 | 0.00 | 81 | 1018.1 |
| 20260507125804 | 47 | 303 | 0.0 | 0.0 | 0.00 | 0.00 | 0.00 | 82 | 1018.1 |
| 20260507125306 | 47 | 167 | 0.0 | 0.0 | 0.00 | 0.00 | 0.00 | 82 | 1018.1 |
| 20260507124802 | 47 | 190 | 1.0 | 0.0 | 0.00 | 0.00 | 0.00 | 82 | 1017.9 |
| 20260507124302 | 46 | 181 | 1.0 | 5.0 | 0.00 | 0.00 | 0.00 | 82 | 1017.9 |
| 20260507123803 | 46 | 190 | 1.0 | 5.0 | 0.00 | 0.00 | 0.00 | 83 | 1017.9 |
| 20260507123303 | 45 | 190 | 0.0 | 0.0 | 0.00 | 0.00 | 0.00 | 83 | 1017.9 |
| 20260507122803 | 45 | 167 | 0.0 | 0.0 | 0.00 | 0.00 | 0.00 | 84 | 1017.7 |
| 20260507122306 | 44 | 145 | 0.0 | 0.0 | 0.00 | 0.00 | 0.00 | 84 | 1017.7 |
| 20260507121802 | 44 | 145 | 0.0 | 0.0 | 0.00 | 0.00 | 0.00 | 85 | 1017.7 |
| 20260507120802 | 44 | 145 | 0.0 | 0.0 | 0.00 | 0.00 | 0.00 | 86 | 1017.8 |
| 20260507120302 | 44 | 167 | 0.0 | 0.0 | 0.00 | 0.00 | 0.00 | 86 | 1017.8 |
| 20260507115802 | 43 | 167 | 0.0 | 0.0 | 0.00 | 0.00 | 0.00 | 86 | 1017.8 |
| 20260507115306 | 43 | 167 | 0.0 | 0.0 | 0.00 | 0.00 | 0.00 | 86 | 1017.8 |
| 20260507113802 | 42 | 190 | 0.0 | 0.0 | 0.00 | 0.00 | 0.00 | 85 | 1017.3 |
| 20260507113302 | 42 | 347 | 0.0 | 0.0 | 0.00 | 0.00 | 0.00 | 86 | 1017.3 |
| 20260507112803 | 42 | 347 | 0.0 | 0.0 | 0.00 | 0.00 | 0.00 | 85 | 1017.3 |
| 20260507112306 | 42 | 167 | 0.0 | 0.0 | 0.00 | 0.00 | 0.00 | 85 | 1017.3 |
| 20260507111302 | 42 | 167 | 0.0 | 0.0 | 0.00 | 0.00 | 0.00 | 85 | 1017.3 |
| 20260507110803 | 42 | 303 | 0.0 | 0.0 | 0.00 | 0.00 | 0.00 | 85 | 1017.1 |
| 20260507110302 | 42 | 303 | 0.0 | 0.0 | 0.00 | 0.00 | 0.00 | 84 | 1017.1 |
| 20260507105803 | 42 | 303 | 0.0 | 0.0 | 0.00 | 0.00 | 0.00 | 84 | 1017.1 |
| 20260507105306 | 42 | 316 | 0.0 | 0.0 | 0.00 | 0.00 | 0.00 | 84 | 1017.1 |
| 20260507104802 | 42 | 167 | 0.0 | 0.0 | 0.00 | 0.00 | 0.00 | 83 | 1016.8 |
| 20260507103802 | 43 | 167 | 0.0 | 0.0 | 0.00 | 0.00 | 0.00 | 82 | 1016.8 |
| 20260507103302 | 43 | 167 | 0.0 | 0.0 | 0.00 | 0.00 | 0.00 | 82 | 1016.8 |
| 20260507102802 | 43 | 167 | 0.0 | 0.0 | 0.00 | 0.00 | 0.00 | 81 | 1017.1 |
| 20260507101802 | 43 | 145 | 0.0 | 0.0 | 0.00 | 0.00 | 0.00 | 81 | 1017.1 |
| 20260507101302 | 43 | 145 | 0.0 | 0.0 | 0.00 | 0.00 | 0.00 | 81 | 1017.1 |
| 20260507100802 | 43 | 145 | 0.0 | 0.0 | 0.00 | 0.00 | 0.00 | 81 | 1017.1 |
| 20260507100303 | 44 | 145 | 0.0 | 0.0 | 0.00 | 0.00 | 0.00 | 81 | 1017.1 |
| 20260507095802 | 44 | 145 | 0.0 | 0.0 | 0.00 | 0.00 | 0.00 | 81 | 1017.1 |
| 20260507095305 | 44 | 145 | 0.0 | 0.0 | 0.00 | 0.00 | 0.00 | 81 | 1017.1 |
| 20260507094802 | 44 | 145 | 0.0 | 0.0 | 0.00 | 0.00 | 0.00 | 82 | 1017.1 |
| 20260507094303 | 44 | 145 | 0.0 | 0.0 | 0.00 | 0.00 | 0.00 | 81 | 1017.1 |
| 20260507093803 | 44 | 145 | 0.0 | 0.0 | 0.00 | 0.00 | 0.00 | 82 | 1017.1 |
| 20260507093303 | 44 | 145 | 0.0 | 0.0 | 0.00 | 0.00 | 0.00 | 82 | 1017.1 |
| 20260507092802 | 44 | 145 | 0.0 | 0.0 | 0.00 | 0.00 | 0.00 | 82 | 1017.1 |
| 20260507092306 | 44 | 145 | 0.0 | 0.0 | 0.00 | 0.00 | 0.00 | 82 | 1017.1 |
| 20260507091803 | 44 | 145 | 0.0 | 0.0 | 0.00 | 0.00 | 0.00 | 82 | 1017.1 |
| 20260507091302 | 43 | 145 | 0.0 | 0.0 | 0.00 | 0.00 | 0.00 | 82 | 1017.1 |
| 20260507090802 | 43 | 145 | 0.0 | 0.0 | 0.00 | 0.00 | 0.00 | 81 | 1017.4 |
| 20260507090302 | 43 | 145 | 0.0 | 0.0 | 0.00 | 0.00 | 0.00 | 81 | 1017.4 |
| 20260507085803 | 43 | 145 | 0.0 | 0.0 | 0.00 | 0.00 | 0.00 | 80 | 1017.4 |
| 20260507085306 | 43 | 145 | 0.0 | 0.0 | 0.00 | 0.00 | 0.00 | 80 | 1017.4 |
| 20260507084303 | 43 | 145 | 0.0 | 0.0 | 0.00 | 0.00 | 0.00 | 79 | 1017.2 |
| 20260507083303 | 44 | 303 | 0.0 | 0.0 | 0.00 | 0.00 | 0.00 | 78 | 1017.2 |
| 20260507082802 | 44 | 303 | 0.0 | 0.0 | 0.00 | 0.00 | 0.00 | 78 | 1017.6 |
| 20260507082306 | 44 | 303 | 0.0 | 0.0 | 0.00 | 0.00 | 0.00 | 78 | 1017.6 |
| 20260507081802 | 44 | 303 | 0.0 | 0.0 | 0.00 | 0.00 | 0.00 | 77 | 1017.6 |
| 20260507081302 | 44 | 303 | 0.0 | 0.0 | 0.00 | 0.00 | 0.00 | 77 | 1017.6 |
| 20260507080802 | 44 | 303 | 0.0 | 0.0 | 0.00 | 0.00 | 0.00 | 76 | 1017.3 |
| 20260507080303 | 44 | 303 | 0.0 | 0.0 | 0.00 | 0.00 | 0.00 | 76 | 1017.3 |
| 20260507075802 | 44 | 303 | 0.0 | 0.0 | 0.00 | 0.00 | 0.00 | 75 | 1017.3 |